Tracking 29892 objects as of 21-Nov-2024
HD Live streaming from Space Station
objects crossing your sky now

CONNECTA IOT-3

Track CONNECTA IOT-3 now!
10-day predictions


NORAD ID: 60475
Int'l Code: 2024-149H
Perigee: 510.3 km
Apogee: 517.7 km
Inclination: 97.4 °
Period: 94.8 minutes
Semi major axis: 6884 km
RCS: Unknown
Launch date: August 16, 2024
Source: Turkey (TURK)
Launch site: AIR FORCE WESTERN TEST RANGE (AFWTR)
Your satellite tracking list
Your tracking list is empty




NASA's NSSDC Master Catalog

Two Line Element Set (TLE):
1 60475U 24149H   24326.05029829  .00008222  00000-0  38839-3 0  9992
2 60475  97.4285  39.9774 0005323 112.8147 247.3650 15.19664151 14602
Source of the keplerian elements: AFSPC